Weather in Rovenky

Ukraine / Luhansk Region     48°04′18″N   39°20′40″E
temp.,
°C
wind,
m/s
gust,
m/s
humid.,
%
clouds,
%
prec.,
mm/h
press.,
hPa
HPBL,
m
22 april, thu
thu2200:00+7ssw25915 0.0 1020108
03:00+7ssw22925 0.0 102132
06:00+6s22945 0.0 102236
09:00+12ssw34735 0.0 1022563
12:00+15sw335515 0.4 10221437
15:00+16sw335063 1.8 10211574
18:00+14sw3564100 2.0 1022216
21:00+11wsw2275100 2.5 102212
23 april, fri
fri2300:00+10w1181100 0.0 102213
03:00+8sw22872 0.0 102213
06:00+7ssw22883 0.0 102319
09:00+12sw44624 0.0 1022516
12:00+16sw44505 0.0 10211637
15:00+16sw564944 0.4 10201753
18:00+14ssw585979 0.0 1019562
21:00+9ssw3780100 0.0 1019180
24 april, sat
sat2400:00+9ssw3875100 0.0 1017227
03:00+9ssw4107770 0.0 1017319
06:00+7ssw4109093 0.0 1016351
09:00+12sw797176 0.1 10151115
12:00+8wnw698292 0.7 1017752
15:00+14w71138100 0.8 10152708
18:00+12w71044100 0.0 10161219
21:00+7wnw712645 0.0 1019662
25 april, sun
sun2500:00+5w511582 0.0 1020431
03:00+3w3767100 0.0 1021205
06:00+2w28755 0.0 1022386
09:00+7wnw465151 0.0 10221184
12:00+11wnw4539100 0.0 10211942
15:00+12wnw343485 0.0 10202168
18:00+12wnw123796 0.0 10202024
21:00+8ssw2355100 0.0 102046
26 april, mon
mon2600:00+6wsw2264100 0.0 102032
03:00+5w1166100 0.0 101911
06:00+6wsw1165100 0.0 101811
09:00+10ssw2349100 0.0 1018517
12:00+13sw554277 0.0 10172007
15:00+13sw574097 0.0 10152116
18:00+10wnw687197 0.4 1016990
21:00+8nw366516 0.5 1017474